When you browse on this site, cookies collect data to enhance your experience and personalize the content and advertising you see.
Visit our Privacy Policy to learn more. By continuing to use the site, you agree to this use of cookies and data.

Hourly Weather Lincoln

Today, 10 July, Friday

Time Temperature Precipitation Wind Pressure Humidity
00:00 +12°C° 0 mm 2 mps 755 mmHg 95%
01:00 +10°C° 0 mm 2 mps 755 mmHg 95%
02:00 +11°C° 0 mm 1 mps 755 mmHg 95%
03:00 +10°C° 0 mm 1 mps 755 mmHg 95%
04:00 +10°C° 0.2 mm 1 mps 755 mmHg 94%
05:00 +10°C° 0.2 mm 2 mps 755 mmHg 92%
06:00 +12°C° 0.2 mm 2 mps 756 mmHg 91%
07:00 +12°C° 0.1 mm 3 mps 756 mmHg 86%
08:00 +13°C° 0.1 mm 3 mps 756 mmHg 81%
09:00 +14°C° 0.1 mm 4 mps 756 mmHg 76%
10:00 +15°C° 0.3 mm 4 mps 757 mmHg 71%
11:00 +17°C° 0.3 mm 4 mps 757 mmHg 66%
12:00 +18°C° 0.3 mm 4 mps 757 mmHg 61%
13:00 +18°C° 0.9 mm 4 mps 757 mmHg 64%
14:00 +18°C° 0.9 mm 4 mps 758 mmHg 67%
15:00 +18°C° 0.9 mm 4 mps 758 mmHg 70%
16:00 +17°C° 0.7 mm 4 mps 758 mmHg 73%
17:00 +17°C° 0.7 mm 4 mps 758 mmHg 76%
18:00 +15°C° 0.7 mm 4 mps 758 mmHg 79%
19:00 +14°C° 0.2 mm 3 mps 759 mmHg 82%
20:00 +13°C° 0.2 mm 2 mps 760 mmHg 84%
21:00 +12°C° 0.2 mm 2 mps 761 mmHg 87%
22:00 +10°C° 0 mm 2 mps 761 mmHg 88%
23:00 +10°C° 0 mm 3 mps 761 mmHg 88%

Tomorrow, 11 July, Saturday

Time Temperature Precipitation Wind Pressure Humidity
00:00 +9°C° 0 mm 3 mps 761 mmHg 89%
01:00 +9°C° 0 mm 3 mps 761 mmHg 89%
02:00 +9°C° 0 mm 3 mps 761 mmHg 90%
03:00 +9°C° 0 mm 3 mps 762 mmHg 91%
04:00 +9°C° 0 mm 3 mps 762 mmHg 89%
05:00 +10°C° 0 mm 4 mps 762 mmHg 87%
06:00 +11°C° 0 mm 4 mps 762 mmHg 85%
07:00 +12°C° 0 mm 4 mps 762 mmHg 79%
08:00 +13°C° 0 mm 4 mps 763 mmHg 73%
09:00 +15°C° 0 mm 4 mps 763 mmHg 67%
10:00 +17°C° 0 mm 3 mps 763 mmHg 64%
11:00 +18°C° 0 mm 3 mps 764 mmHg 60%
12:00 +19°C° 0 mm 3 mps 764 mmHg 57%
13:00 +19°C° 0 mm 3 mps 764 mmHg 58%
14:00 +19°C° 0 mm 3 mps 764 mmHg 59%
15:00 +19°C° 0 mm 3 mps 764 mmHg 60%
16:00 +18°C° 0 mm 3 mps 764 mmHg 63%
17:00 +18°C° 0 mm 3 mps 764 mmHg 66%
18:00 +18°C° 0 mm 3 mps 764 mmHg 69%
19:00 +16°C° 0 mm 3 mps 765 mmHg 73%
20:00 +13°C° 0 mm 3 mps 765 mmHg 78%
21:00 +12°C° 0 mm 2 mps 765 mmHg 82%
22:00 +12°C° 0 mm 2 mps 765 mmHg 83%
23:00 +10°C° 0 mm 2 mps 765 mmHg 84%

Day after tomorrow, 12 July, Sunday

Time Temperature Precipitation Wind Pressure Humidity
00:00 +10°C° 0 mm 2 mps 765 mmHg 85%
01:00 +9°C° 0 mm 2 mps 765 mmHg 86%
02:00 +9°C° 0 mm 2 mps 765 mmHg 88%
03:00 +10°C° 0 mm 1 mps 765 mmHg 89%
04:00 +10°C° 0 mm 1 mps 765 mmHg 87%
05:00 +11°C° 0 mm 1 mps 765 mmHg 85%
06:00 +12°C° 0 mm 1 mps 765 mmHg 83%
07:00 +14°C° 0 mm 1 mps 766 mmHg 78%
08:00 +15°C° 0 mm 1 mps 766 mmHg 73%
09:00 +18°C° 0 mm 1 mps 766 mmHg 68%
10:00 +19°C° 0 mm 1 mps 766 mmHg 64%
11:00 +20°C° 0 mm 1 mps 766 mmHg 60%
12:00 +21°C° 0 mm 1 mps 766 mmHg 56%
13:00 +21°C° 0 mm 1 mps 766 mmHg 55%
14:00 +21°C° 0 mm 1 mps 765 mmHg 54%
15:00 +21°C° 0 mm 2 mps 765 mmHg 53%
16:00 +20°C° 0 mm 2 mps 765 mmHg 57%
17:00 +20°C° 0 mm 2 mps 765 mmHg 60%
18:00 +20°C° 0 mm 2 mps 764 mmHg 63%
19:00 +18°C° 0 mm 2 mps 764 mmHg 68%
20:00 +16°C° 0 mm 2 mps 765 mmHg 73%
21:00 +15°C° 0 mm 2 mps 765 mmHg 77%
22:00 +14°C° 0 mm 2 mps 764 mmHg 79%
23:00 +14°C° 0 mm 2 mps 764 mmHg 81%

13 July, Monday

Time Temperature Precipitation Wind Pressure Humidity
00:00 +13°C° 0 mm 2 mps 764 mmHg 82%
01:00 +13°C° 0 mm 2 mps 764 mmHg 83%
02:00 +13°C° 0 mm 2 mps 764 mmHg 84%
03:00 +12°C° 0 mm 2 mps 763 mmHg 85%
04:00 +12°C° 0 mm 3 mps 763 mmHg 83%
05:00 +13°C° 0 mm 3 mps 763 mmHg 81%
06:00 +13°C° 0 mm 3 mps 763 mmHg 79%
07:00 +14°C° 0 mm 4 mps 763 mmHg 75%
08:00 +15°C° 0 mm 4 mps 762 mmHg 70%
09:00 +16°C° 0 mm 5 mps 762 mmHg 65%
10:00 +15°C° 0.1 mm 5 mps 762 mmHg 71%
11:00 +15°C° 0.1 mm 5 mps 762 mmHg 77%
12:00 +14°C° 0.1 mm 5 mps 762 mmHg 83%
13:00 +14°C° 0.1 mm 4 mps 761 mmHg 85%
14:00 +14°C° 0.1 mm 4 mps 761 mmHg 87%
15:00 +14°C° 0.1 mm 4 mps 761 mmHg 89%
16:00 +15°C° 0.1 mm 4 mps 761 mmHg 88%
17:00 +17°C° 0.1 mm 4 mps 760 mmHg 86%
18:00 +18°C° 0.1 mm 4 mps 760 mmHg 84%
19:00 +17°C° 0.1 mm 4 mps 760 mmHg 87%
20:00 +16°C° 0.1 mm 3 mps 760 mmHg 89%
21:00 +15°C° 0.1 mm 2 mps 760 mmHg 92%
22:00 +15°C° 0 mm 2 mps 760 mmHg 92%
23:00 +14°C° 0 mm 2 mps 760 mmHg 93%

14 July, Tuesday

Time Temperature Precipitation Wind Pressure Humidity
00:00 +14°C° 0 mm 2 mps 759 mmHg 94%
01:00 +14°C° 0 mm 2 mps 759 mmHg 94%
02:00 +14°C° 0 mm 1 mps 759 mmHg 94%
03:00 +13°C° 0 mm 1 mps 758 mmHg 94%
04:00 +14°C° 0 mm 1 mps 758 mmHg 93%
05:00 +15°C° 0 mm 1 mps 758 mmHg 91%
06:00 +15°C° 0 mm 1 mps 758 mmHg 89%
07:00 +16°C° 0 mm 1 mps 758 mmHg 83%
08:00 +19°C° 0 mm 1 mps 758 mmHg 78%
09:00 +18°C° 0 mm 0 mps 758 mmHg 72%
10:00 +20°C° 0.2 mm 1 mps 757 mmHg 71%
11:00 +20°C° 0.2 mm 1 mps 757 mmHg 70%
12:00 +20°C° 0.2 mm 2 mps 757 mmHg 69%
13:00 +21°C° 0.3 mm 1 mps 756 mmHg 68%
14:00 +21°C° 0.3 mm 1 mps 756 mmHg 67%
15:00 +22°C° 0.3 mm 1 mps 755 mmHg 66%
16:00 +21°C° 0.3 mm 1 mps 755 mmHg 69%
17:00 +21°C° 0.3 mm 1 mps 755 mmHg 72%
18:00 +20°C° 0.3 mm 1 mps 755 mmHg 75%
19:00 +19°C° 0.1 mm 1 mps 755 mmHg 78%
20:00 +18°C° 0.1 mm 1 mps 755 mmHg 82%
21:00 +15°C° 0.1 mm 2 mps 755 mmHg 86%
22:00 +15°C° 0 mm 2 mps 755 mmHg 87%
23:00 +15°C° 0 mm 2 mps 755 mmHg 88%

15 July, Wednesday

Time Temperature Precipitation Wind Pressure Humidity
00:00 +15°C° 0 mm 2 mps 754 mmHg 90%
01:00 +14°C° 0.1 mm 2 mps 754 mmHg 91%
02:00 +13°C° 0.1 mm 3 mps 754 mmHg 92%
03:00 +13°C° 0.1 mm 3 mps 753 mmHg 93%
04:00 +13°C° 0.1 mm 3 mps 753 mmHg 93%
05:00 +13°C° 0.1 mm 4 mps 753 mmHg 93%
06:00 +13°C° 0.1 mm 4 mps 753 mmHg 93%
07:00 +14°C° 0.1 mm 4 mps 753 mmHg 93%
08:00 +14°C° 0.1 mm 4 mps 753 mmHg 92%
09:00 +15°C° 0.1 mm 4 mps 753 mmHg 92%
10:00 +17°C° 0 mm 4 mps 753 mmHg 89%
11:00 +17°C° 0 mm 5 mps 753 mmHg 85%
12:00 +19°C° 0 mm 5 mps 753 mmHg 82%
13:00 +19°C° 0 mm 5 mps 753 mmHg 82%
14:00 +17°C° 0 mm 5 mps 753 mmHg 83%
15:00 +18°C° 0 mm 4 mps 753 mmHg 84%
16:00 +18°C° 0 mm 4 mps 753 mmHg 84%
17:00 +18°C° 0 mm 4 mps 753 mmHg 84%
18:00 +18°C° 0 mm 4 mps 753 mmHg 84%
19:00 +18°C° 0 mm 3 mps 753 mmHg 86%
20:00 +17°C° 0 mm 3 mps 753 mmHg 88%
21:00 +17°C° 0 mm 3 mps 753 mmHg 90%
22:00 +17°C° 0 mm 3 mps 753 mmHg 90%
23:00 +16°C° 0 mm 3 mps 753 mmHg 90%
Show more